CW2969 Weather Reports


time (UTC)temp
C
wind
direction
speed
KPH
gust
KPH
rain 1hr
cm
rain 24hr
cm
rain mn
cm
humidity
%
barometer
mb
20260906193522 34 316 4.8 4.8 0.00 0.00 0.00 53 1011.5
20260906193022 34 55 1.6 3.2 0.00 0.00 0.00 52 1011.5
20260906192022 34 69 1.6 11.3 0.00 0.00 0.00 53 1011.6
20260906191522 34 102 4.8 14.5 0.00 0.00 0.00 52 1011.6
20260906191022 35 98 11.3 14.5 0.00 0.00 0.00 53 1011.7
20260906190522 34 180 3.2 6.4 0.00 0.00 0.00 53 1011.7
20260906185521 33 113 3.2 3.2 0.00 0.00 0.00 56 1011.8
20260906185021 33 103 0.0 4.8 0.00 0.00 0.00 56 1012.0
20260906184022 33 17 0.0 9.7 0.00 0.00 0.00 56 1012.0
20260906183521 33 346 8.0 9.7 0.00 0.00 0.00 57 1012.0
20260906182521 33 299 1.6 6.4 0.00 0.00 0.00 56 1012.0
20260906182021 33 328 1.6 9.7 0.00 0.00 0.00 56 1012.1
20260906181521 33 134 1.6 9.7 0.00 0.00 0.00 57 1012.2
20260906181021 33 107 4.8 4.8 0.00 0.00 0.00 57 1012.3
20260906180521 34 78 3.2 4.8 0.00 0.00 0.00 58 1012.5
20260906175021 33 31 1.6 4.8 0.00 0.00 0.00 58 1012.8
20260906174522 33 119 3.2 4.8 0.00 0.00 0.00 59 1012.8
20260906174021 33 111 3.2 4.8 0.00 0.00 0.00 59 1012.9
20260906173521 33 355 1.6 12.9 0.00 0.00 0.00 61 1013.0
20260906173021 33 118 4.8 12.9 0.00 0.00 0.00 61 1013.1
20260906172521 33 134 3.2 4.8 0.00 0.00 0.00 61 1013.1
20260906172021 33 75 1.6 4.8 0.00 0.00 0.00 62 1013.2
20260906171021 32 74 0.0 8.0 0.00 0.00 0.00 63 1013.5
20260906170521 32 349 1.6 8.0 0.00 0.00 0.00 64 1013.6
20260906170021 32 125 6.4 6.4 0.00 0.00 0.00 64 1013.6
20260906165521 32 124 1.6 4.8 0.00 0.00 0.00 65 1013.6
20260906165020 32 101 0.0 6.4 0.00 0.00 0.00 65 1013.6
20260906164521 32 101 3.2 6.4 0.00 0.00 0.00 66 1013.7
20260906164020 31 140 0.0 3.2 0.00 0.00 0.00 67 1013.7
20260906163021 31 111 0.0 4.8 0.00 0.00 0.00 68 1013.7
20260906162521 31 113 1.6 4.8 0.00 0.00 0.00 69 1013.7
20260906162020 31 124 3.2 3.2 0.00 0.00 0.00 70 1013.6
20260906161520 31 70 1.6 3.2 0.00 0.00 0.00 71 1013.6
20260906160520 30 86 1.6 4.8 0.00 0.00 0.00 72 1013.7
20260906160020 30 312 1.6 6.4 0.00 0.00 0.00 72 1013.7
20260906155520 30 113 4.8 6.4 0.00 0.00 0.00 73 1013.7
20260906155020 30 168 1.6 11.3 0.00 0.00 0.00 74 1013.6
20260906153520 29 38 0.0 3.2 0.00 0.00 0.00 76 1013.7
20260906153020 29 170 0.0 6.4 0.00 0.00 0.00 76 1013.8
20260906152020 29 313 0.0 3.2 0.00 0.00 0.00 77 1013.7
20260906151520 28 253 0.0 4.8 0.00 0.00 0.00 77 1013.6
20260906151020 28 245 3.2 8.0 0.00 0.00 0.00 77 1013.6
20260906150520 28 190 3.2 8.0 0.00 0.00 0.00 78 1013.5
20260906150020 28 111 0.0 3.2 0.00 0.00 0.00 78 1013.5
20260906145520 28 282 3.2 6.4 0.00 0.00 0.00 78 1013.4
20260906145020 28 20 3.2 8.0 0.00 0.00 0.00 78 1013.4
20260906144520 28 192 3.2 8.0 0.00 0.00 0.00 78 1013.4
20260906144020 28 118 1.6 6.4 0.00 0.00 0.00 78 1013.4
20260906143520 28 229 4.8 6.4 0.00 0.00 0.00 78 1013.4
20260906143019 28 155 1.6 6.4 0.00 0.00 0.00 78 1013.4
20260906142020 28 215 8.0 8.0 0.00 0.00 0.00 79 1013.3
20260906141520 28 113 1.6 4.8 0.00 0.00 0.00 79 1013.2
20260906140020 28 225 0.0 8.0 0.00 0.00 0.00 79 1013.2
20260906135520 28 160 8.0 8.0 0.00 0.00 0.00 79 1013.3
20260906135019 28 165 1.6 6.4 0.00 0.00 0.00 79 1013.3
20260906133519 27 105 0.0 8.0 0.00 0.00 0.00 80 1012.9
20260906133019 27 155 4.8 8.0 0.00 0.00 0.00 80 1013.0
20260906132519 27 136 3.2 6.4 0.00 0.00 0.00 80 1012.9
20260906131519 27 177 0.0 11.3 0.00 0.00 0.00 80 1012.7
20260906131019 27 150 3.2 11.3 0.00 0.00 0.00 80 1012.7
20260906130019 27 146 0.0 4.8 0.00 0.00 0.00 80 1012.7
20260906125019 26 138 0.0 1.6 0.00 0.00 0.00 80 1012.5
20260906123518 26 138 0.0 1.6 0.00 0.00 0.00 80 1012.3
20260906123019 26 138 0.0 1.6 0.00 0.00 0.00 79 1012.3
20260906122018 26 138 0.0 3.2 0.00 0.00 0.00 79 1012.1
20260906121518 26 138 1.6 3.2 0.00 0.00 0.00 79 1012.0
20260906121018 26 138 0.0 0.0 0.00 0.00 0.00 79 1011.9
20260906120518 26 138 0.0 0.0 0.00 0.00 0.00 79 1011.9
20260906120018 26 138 0.0 0.0 0.00 0.00 0.00 79 1011.7
20260906115018 26 138 0.0 0.0 0.00 0.00 0.00 79 1011.6
20260906114518 26 138 0.0 3.2 0.00 0.00 0.00 79 1011.6
20260906114018 26 138 0.0 3.2 0.00 0.00 0.00 79 1011.5
20260906113517 26 130 0.0 0.0 0.00 0.00 0.00 79 1011.4
20260906113018 26 171 0.0 0.0 0.00 0.00 0.00 78 1011.3
20260906112517 26 171 0.0 0.0 0.00 0.00 0.00 78 1011.3
20260906112017 26 171 0.0 0.0 0.00 0.00 0.00 78 1011.3
20260906111517 27 171 0.0 0.0 0.00 0.00 0.00 78 1011.2
20260906111017 27 171 0.0 0.0 0.00 0.00 0.00 78 1011.0
20260906110518 27 171 0.0 0.0 0.00 0.00 0.00 78 1011.0
20260906110017 27 171 0.0 0.0 0.00 0.00 0.00 78 1010.9
20260906105517 27 171 0.0 0.0 0.00 0.00 0.00 78 1010.8
20260906105017 27 171 0.0 0.0 0.00 0.00 0.00 77 1010.8
20260906104517 27 171 0.0 0.0 0.00 0.00 0.00 77 1010.9
20260906104017 27 171 0.0 0.0 0.00 0.00 0.00 77 1010.8
20260906103517 27 171 0.0 0.0 0.00 0.00 0.00 77 1010.9
20260906101517 27 171 0.0 0.0 0.00 0.00 0.00 77 1010.8
20260906101017 27 171 0.0 0.0 0.00 0.00 0.00 77 1010.8
20260906100517 27 171 0.0 0.0 0.00 0.00 0.00 77 1010.8
20260906100017 27 171 0.0 0.0 0.00 0.00 0.00 77 1010.9
20260906095017 27 200 0.0 0.0 0.00 0.00 0.00 76 1011.0
20260906094517 27 200 0.0 0.0 0.00 0.00 0.00 76 1011.0
20260906094017 27 209 0.0 0.0 0.00 0.00 0.00 76 1011.0
20260906093517 27 166 0.0 0.0 0.00 0.00 0.00 76 1011.0
20260906093017 27 161 0.0 0.0 0.00 0.00 0.00 76 1011.0
20260906092016 27 236 0.0 1.6 0.00 0.00 0.00 76 1011.0
20260906091517 27 192 0.0 1.6 0.00 0.00 0.00 76 1011.0
20260906091017 27 156 0.0 1.6 0.00 0.00 0.00 76 1011.0
20260906090517 27 156 0.0 0.0 0.00 0.00 0.00 75 1011.0
20260906090016 27 156 0.0 1.6 0.00 0.00 0.00 75 1010.9
20260906085516 27 156 0.0 1.6 0.00 0.00 0.00 75 1010.8
20260906085016 27 156 0.0 0.0 0.00 0.00 0.00 75 1010.9
20260906083516 27 206 0.0 3.2 0.00 0.00 0.00 75 1010.8
20260906083016 27 229 0.0 3.2 0.00 0.00 0.00 74 1010.9
20260906082516 27 166 0.0 0.0 0.00 0.00 0.00 74 1010.9
20260906082016 27 214 0.0 0.0 0.00 0.00 0.00 74 1011.0
20260906081517 27 208 0.0 1.6 0.00 0.00 0.00 74 1011.1
20260906081016 27 125 0.0 4.8 0.00 0.00 0.00 74 1011.1
20260906075516 28 147 0.0 3.2 0.00 0.00 0.00 73 1011.2
20260906074516 28 223 3.2 3.2 0.00 0.00 0.00 73 1011.4
20260906074016 28 120 3.2 4.8 0.00 0.00 0.00 72 1011.4
20260906073516 28 133 1.6 4.8 0.00 0.00 0.00 72 1011.4
20260906073016 28 154 0.0 3.2 0.00 0.00 0.00 72 1011.4
20260906072516 28 146 1.6 4.8 0.00 0.00 0.00 72 1011.4
20260906072015 28 164 3.2 12.9 0.00 0.00 0.00 72 1011.5
20260906071515 28 180 1.6 12.9 0.00 0.00 0.00 71 1011.7
20260906065515 28 144 1.6 8.0 0.00 0.00 0.00 71 1011.7
20260906065015 28 219 8.0 8.0 0.00 0.00 0.00 70 1011.8
20260906064515 28 216 3.2 6.4 0.00 0.00 0.00 70 1011.9
20260906064016 28 257 0.0 4.8 0.00 0.00 0.00 70 1012.0
20260906063516 29 138 1.6 4.8 0.00 0.00 0.00 70 1012.1
20260906063015 29 198 1.6 6.4 0.00 0.00 0.00 70 1012.1
20260906062515 29 159 1.6 6.4 0.00 0.00 0.00 70 1012.0
20260906062015 29 227 1.6 8.0 0.00 0.00 0.00 69 1012.0
20260906061015 29 215 0.0 8.0 0.00 0.00 0.00 69 1012.1
20260906060515 29 133 8.0 8.0 0.00 0.00 0.00 69 1012.1
20260906060015 29 207 1.6 9.7 0.00 0.00 0.00 69 1012.1
20260906055515 29 119 6.4 9.7 0.00 0.00 0.00 69 1012.1
20260906055015 30 121 0.0 11.3 0.00 0.00 0.00 68 1012.1
20260906054515 30 168 6.4 11.3 0.00 0.00 0.00 68 1012.1
20260906054014 30 224 4.8 9.7 0.00 0.00 0.00 68 1012.0
20260906053514 30 232 8.0 8.0 0.00 0.00 0.00 67 1011.9
20260906053015 30 335 3.2 4.8 0.00 0.00 0.00 67 1011.9
20260906052515 30 124 0.0 4.8 0.00 0.00 0.00 66 1012.0
20260906052015 30 182 0.0 3.2 0.00 0.00 0.00 66 1012.1
20260906051515 30 153 1.6 4.8 0.00 0.00 0.00 66 1012.1
20260906050014 30 130 0.0 4.8 0.00 0.00 0.00 65 1012.1
20260906045514 30 235 1.6 8.0 0.00 0.00 0.00 65 1011.9
20260906045014 30 133 3.2 9.7 0.00 0.00 0.00 65 1011.9
20260906044514 30 213 4.8 9.7 0.00 0.00 0.00 64 1012.0
20260906044014 30 149 1.6 12.9 0.00 0.00 0.00 64 1012.0
20260906043514 30 140 1.6 12.9 0.00 0.00 0.00 64 1012.0
20260906043014 31 107 1.6 14.5 0.00 0.00 0.00 63 1012.2
20260906042514 31 124 11.3 14.5 0.00 0.00 0.00 63 1012.1
20260906042014 31 125 6.4 6.4 0.00 0.00 0.00 63 1012.1
20260906040514 31 133 4.8 8.0 0.00 0.00 0.00 62 1012.0
20260906035513 31 131 4.8 11.3 0.00 0.00 0.00 61 1011.9
20260906034513 31 139 1.6 6.4 0.00 0.00 0.00 60 1011.8
20260906034013 31 152 1.6 19.3 0.00 0.00 0.00 60 1011.8
20260906033514 31 161 8.0 19.3 0.00 0.00 0.00 60 1011.8
20260906033013 31 162 1.6 14.5 0.00 0.00 0.00 59 1011.8
20260906032513 32 133 3.2 14.5 0.00 0.00 0.00 59 1011.7
20260906032013 32 134 4.8 9.7 0.00 0.00 0.00 58 1011.7
20260906031513 32 201 6.4 11.3 0.00 0.00 0.00 57 1011.6
20260906030513 32 22 1.6 16.1 0.00 0.00 0.00 57 1011.4
20260906025513 32 146 4.8 6.4 0.00 0.00 0.00 55 1011.2
20260906025013 32 177 4.8 17.7 0.00 0.00 0.00 55 1011.0
20260906024513 32 123 8.0 17.7 0.00 0.00 0.00 55 1010.9
20260906024013 32 98 9.7 16.1 0.00 0.00 0.00 54 1010.7
20260906023512 32 144 9.7 9.7 0.00 0.00 0.00 53 1010.6
20260906023012 32 134 4.8 8.0 0.00 0.00 0.00 53 1010.5
20260906022512 33 133 3.2 6.4 0.00 0.00 0.00 53 1010.4
20260906021513 33 111 6.4 14.5 0.00 0.00 0.00 53 1009.9
20260906021012 33 107 4.8 11.3 0.00 0.00 0.00 53 1009.9
20260906020512 33 115 3.2 9.7 0.00 0.00 0.00 52 1009.7
20260906020012 33 130 3.2 9.7 0.00 0.00 0.00 52 1009.8
20260906015512 33 125 3.2 4.8 0.00 0.00 0.00 51 1009.7
20260906015012 33 133 3.2 4.8 0.00 0.00 0.00 51 1009.7
20260906013512 33 119 3.2 14.5 0.00 0.00 0.00 50 1009.6
20260906013012 33 101 0.0 14.5 0.00 0.00 0.00 50 1009.6
20260906012012 33 94 4.8 19.3 0.00 0.00 0.00 49 1009.4
20260906011512 33 87 6.4 11.3 0.00 0.00 0.00 49 1009.4
20260906011012 33 107 4.8 11.3 0.00 0.00 0.00 49 1009.4
20260906010512 33 120 4.8 4.8 0.00 0.00 0.00 49 1009.3
20260906010012 33 75 0.0 16.1 0.00 0.00 0.00 49 1009.3
20260906005512 33 133 4.8 16.1 0.00 0.00 0.00 49 1009.2
20260906005012 33 92 3.2 16.1 0.00 0.00 0.00 48 1009.4
20260906004012 35 188 8.0 17.7 0.00 0.00 0.00 45 1009.4
20260906003011 36 100 22.5 22.5 0.00 0.00 0.00 43 1009.4
20260906002511 36 101 12.9 17.7 0.00 0.00 0.00 42 1009.2
20260906001511 36 126 6.4 19.3 0.00 0.00 0.00 41 1009.1
20260906001011 36 155 11.3 19.3 0.00 0.00 0.00 40 1009.1
20260906000512 36 125 6.4 12.9 0.00 0.00 0.00 40 1009.1
20260906000011 37 145 4.8 11.3 0.00 0.00 0.00 39 1009.1
20260905235511 37 114 4.8 14.5 0.00 0.00 0.00 39 1009.0
20260905235011 37 294 4.8 16.1 0.00 0.00 0.00 38 1009.0
20260905234511 37 61 14.5 16.1 0.00 0.00 0.00 38 1009.1
20260905234011 37 104 9.7 11.3 0.00 0.00 0.00 38 1009.0
20260905233011 37 113 1.6 11.3 0.00 0.00 0.00 38 1008.9
20260905232511 37 253 0.0 1.6 0.00 0.00 0.00 38 1008.9
20260905232011 37 141 0.0 4.8 0.00 0.00 0.00 37 1008.9
20260905231011 37 228 1.6 6.4 0.00 0.00 0.00 38 1009.0
20260905230011 37 241 3.2 4.8 0.00 0.00 0.00 38 1008.9
20260905225011 37 123 1.6 3.2 0.00 0.00 0.00 39 1008.9
20260905224511 37 107 3.2 4.8 0.00 0.00 0.00 39 1008.9
20260905224010 37 113 0.0 6.4 0.00 0.00 0.00 39 1008.9
20260905223511 37 128 6.4 6.4 0.00 0.00 0.00 39 1008.9
20260905223010 37 90 0.0 14.5 0.00 0.00 0.00 38 1008.9
20260905222510 37 105 6.4 14.5 0.00 0.00 0.00 38 1009.0
20260905222010 37 75 4.8 8.0 0.00 0.00 0.00 37 1009.0
20260905221510 37 244 0.0 1.6 0.00 0.00 0.00 37 1009.1
20260905221010 37 94 1.6 6.4 0.00 0.00 0.00 37 1009.2
20260905220510 37 192 3.2 9.7 0.00 0.00 0.00 37 1009.2
20260905220010 38 85 4.8 9.7 0.00 0.00 0.00 37 1009.2
20260905215510 37 338 1.6 4.8 0.00 0.00 0.00 37 1009.1
20260905215010 38 228 3.2 8.0 0.00 0.00 0.00 36 1009.1
20260905214510 38 113 3.2 9.7 0.00 0.00 0.00 37 1009.2
20260905214010 38 107 3.2 9.7 0.00 0.00 0.00 37 1009.1
20260905213510 37 250 0.0 8.0 0.00 0.00 0.00 37 1009.1
20260905213010 37 126 0.0 11.3 0.00 0.00 0.00 37 1009.2
20260905212509 37 98 1.6 11.3 0.00 0.00 0.00 37 1009.2
20260905212009 37 115 3.2 3.2 0.00 0.00 0.00 37 1009.2
20260905211509 37 107 1.6 8.0 0.00 0.00 0.00 37 1009.2
20260905211009 37 132 3.2 8.0 0.00 0.00 0.00 37 1009.4
20260905210510 37 236 1.6 8.0 0.00 0.00 0.00 37 1009.4
20260905210009 37 155 4.8 6.4 0.00 0.00 0.00 38 1009.5
20260905205509 37 311 0.0 6.4 0.00 0.00 0.00 38 1009.5
20260905205009 37 319 4.8 8.0 0.00 0.00 0.00 38 1009.6
20260905204509 37 301 6.4 9.7 0.00 0.00 0.00 39 1009.7
20260905204439 37 315 3.2 12.9 0.00 0.00 0.00 39 1010.0
20260905202509 37 120 1.6 6.4 0.00 0.00 0.00 39 1010.2
20260905202009 37 72 1.6 6.4 0.00 0.00 0.00 39 1010.3
20260905201509 37 98 3.2 11.3 0.00 0.00 0.00 40 1010.4
20260905201009 36 186 3.2 14.5 0.00 0.00 0.00 40 1010.5
20260905200509 37 106 9.7 14.5 0.00 0.00 0.00 41 1010.5
20260905200009 36 139 11.3 12.9 0.00 0.00 0.00 42 1010.7
20260905195509 36 118 4.8 11.3 0.00 0.00 0.00 43 1010.7
20260905195008 36 232 4.8 8.0 0.00 0.00 0.00 44 1010.7
20260905194509 36 326 4.8 9.7 0.00 0.00 0.00 44 1010.8
20260905194008 36 300 8.0 16.1 0.00 0.00 0.00 44 1010.9